Regional Weather Roundup
Issued by NWS Little Rock, AR

Home | Current Version | Previous Version | Graphics & Text | Print | Product List | Glossary On
Versions: 1 2 3 4 5 6 7 8 9 10 11 12 13 14 15 16 17 18 19 20 21 22 23 24 25 26 27 28 29 30 31 32 33 34 35 36 37 38 39 40 41 42 43 44 45 46 47 48 49 50
000
ASUS44 KLZK 020705
RWRLZK

WEATHER ROUNDUP FOR ARKANSAS
NATIONAL WEATHER SERVICE LITTLE ROCK AR
200 AM CDT THU OCT 02 2014

NOTE: "FAIR" INDICATES FEW OR NO CLOUDS BELOW 12,000 FEET WITH NO
SIGNIFICANT WEATHER AND/OR OBSTRUCTIONS TO VISIBILITY.

ARZ001-003-010-029-020800-
NORTHWEST ARKANSAS

CITY           SKY/WX    TMP DP  RH WIND       PRES   REMARKS
FAYETTEVILLE   CLEAR     74  69  85 S9        29.82F
FORT SMITH     PTCLDY    73  68  84 E3        29.80F
HARRISON       MOCLDY    73  68  84 SE7       29.85F
BENTONVILLE    PTCLDY    75  66  73 S12       29.81F
ROGERS         PTCLDY    74  67  78 SE13      29.82F
SILOAM SPGS    PTCLDY    73  64  73 SE9       29.81F
HIGHFILL       PTCLDY    74  68  81 S13       29.80F
$$

ARZ004-005-016-020800-
NORTH CENTRAL ARKANSAS

CITY           SKY/WX    TMP DP  RH WIND       PRES   REMARKS
BATESVILLE     CLEAR     73  66  78 S5        29.87R
FLIPPIN        CLEAR     72  64  78 E3        29.85S
MTN HOME       CLEAR     71  68  90 SE5       29.85S
$$

ARZ040-041-020800-
WEST CENTRAL ARKANSAS

CITY           SKY/WX    TMP DP  RH WIND       PRES   REMARKS
MENA           MOCLDY    79  73  83 CALM      29.86S
MOUNT IDA      PTCLDY    78  71  79 VRB3      29.84R
$$

ARZ009-017-025-026-028-020800-
NORTHEAST ARKANSAS

CITY           SKY/WX    TMP DP  RH WIND       PRES   REMARKS
CORNING          N/A     73  64  73 S9        29.87S
JONESBORO      CLEAR     70  66  87 S5        29.88S
NEWPORT        MOCLDY    73  66  78 S7        29.88S
WALNUT RIDGE   PTCLDY    72  64  78 S9        29.86S
BLYTHEVILLE    CLEAR     71  64  78 S7        29.90R
$$

ARZ022-023-033-042-044-020800-
CENTRAL ARKANSAS

CITY           SKY/WX    TMP DP  RH WIND       PRES   REMARKS
LITTLE ROCK    CLEAR     74  68  81 S7        29.87R
N LITTLE ROCK    N/A     75  71  87 S5        29.87R
JACKSONVILLE   CLEAR     73  69  85 SE2       29.87R
SEARCY         CLEAR     71  68  90 CALM      29.88S
HOT SPRINGS    MOCLDY    77  71  82 S10       29.87R
RUSSELLVILLE   CLOUDY    76  70  82 VRB3      29.85R
CLINTON        FAIR      70  70 100 CALM      29.87S FOG
$$

ARZ036-020800-
EAST ARKANSAS

CITY           SKY/WX    TMP DP  RH WIND       PRES   REMARKS
WEST MEMPHIS   CLEAR     69  67  93 S5        29.89R
$$

ARZ050-053-066-070-073-020800-
SOUTHWEST ARKANSAS

CITY           SKY/WX    TMP DP  RH WIND       PRES   REMARKS
ARKADELPHIA    FAIR      73  73 100 CALM      29.86R
CAMDEN         CLEAR     73  68  83 S3        29.86R
TEXARKANA      CLEAR     75  73  93 S8        29.84R
EL DORADO      CLEAR     74  72  93 S5        29.87R
DE QUEEN       CLEAR     71  69  93 NE3       29.81S
$$

ARZ056-057-069-020800-
SOUTHEAST ARKANSAS

CITY           SKY/WX    TMP DP  RH WIND       PRES   REMARKS
PINE BLUFF     CLEAR     72  68  87 SE5       29.88R
STUTTGART      CLEAR    N/A N/A N/A SE7       29.88S
MONTICELLO     CLEAR     74  70  87 S8        29.88S

$$




USA.gov is the U.S. government's official web portal to all federal, state and local government web resources and services.